Location: ????
(30.1475°N, 31.1342°E)
Time: 22:10:41
(UTC+00:00)

COSMOS 2251 DEB - Visible Passes

Search period start: 27 May 2024 00:00
Search period end: 06 June 2024 00:00
Orbit: 760 x 786 km, 73.9° (Epoch: 27 May)

Date Brightness Start Highest point End Pass type
(mag) Time Alt. Az. Time Alt. Az. Time Alt. Az.
27 May ? 02:22:06 10° N 02:26:33 27° ENE 02:30:57 10° SE visible
28 May ? 01:47:34 10° NNE 01:50:43 16° ENE 01:53:51 10° E visible
29 May ? 17:27:17 10° W 17:29:50 13° WNW 17:32:23 10° NW visible
30 May ? 02:16:48 10° N 02:21:57 53° ENE 02:27:02 10° SSE visible
31 May ? 01:41:38 10° N 01:46:15 30° ENE 01:50:48 10° SE visible
01 Jun ? 01:06:57 10° NNE 01:10:26 18° ENE 01:13:52 10° ESE visible
02 Jun ? 02:11:57 10° NNW 02:17:12 76° WSW 02:22:24 10° S visible
03 Jun ? 01:36:24 10° N 01:41:36 60° ENE 01:46:43 10° SSE visible
04 Jun ? 01:01:10 10° N 01:05:54 33° ENE 01:10:35 10° SE visible
05 Jun ? 00:26:21 10° NNE 00:30:05 19° ENE 00:33:48 10° ESE visible
05 Jun ? 02:07:32 10° NW 02:12:19 37° W 02:17:04 10° SSW visible
05 Jun ? 23:52:50 10° NE 23:54:11 11° ENE 23:55:31 10° ENE visible
